Date String (YYYY-MM-DD hh:mm:ss) UTC,Instrument flags,Ambient pressure (hPa),Sample flow (lpm),Bypass flow (lpm),Sample temperature (°C),Ambient temperature (°C),ASC tube jacket temperature (°C),LED temperature (°C),Box temperature (°C),Sample RH (%),Span deviation,Mass concentration (μg/m³),Mass concentration (μg/m³),Mass concentration (μg/m³)
DateTimeUTC,F1_M11,P_M11,Q1_M11,Q2_M11,T1_M11,T2_M11,T3_M11,T4_M11,T5_M11,U1_M11,ZSPAN_M11,X0_M11,X2_M11,X1_M11
2022-12-06 10:00:00,,0819.3,5.00,0.00,22.0,20.6,00.0,30.9,23.9,17.9,0000.0,0005.79,0002.39,0001.63
2022-12-06 10:01:00,,0819.3,5.00,0.00,22.0,20.7,00.0,30.9,23.8,17.8,0000.0,0006.03,0002.45,0001.64
2022-12-06 10:02:00,,0819.2,5.00,0.00,22.0,21.3,00.0,30.9,24.0,17.7,0000.0,0005.88,0002.47,0001.64
2022-12-06 10:03:00,,0819.2,5.00,0.00,22.1,22.1,00.0,30.9,24.2,17.5,0000.0,0005.23,0002.44,0001.64
2022-12-06 10:04:00,,0819.2,4.99,0.00,22.2,22.0,00.0,30.9,24.3,17.4,0000.0,0005.25,0002.43,0001.64
2022-12-06 10:05:00,,0819.2,4.99,0.00,22.2,21.8,00.0,31.0,24.2,17.2,0000.0,0005.38,0002.45,0001.63
2022-12-06 10:06:00,,0819.2,5.01,0.00,22.2,21.7,00.0,31.0,24.2,17.2,0000.0,0005.32,0002.40,0001.63
2022-12-06 10:07:00,,0819.3,5.01,0.00,22.2,21.5,00.0,31.0,24.2,17.1,0000.0,0004.91,0002.38,0001.64
2022-12-06 10:08:00,,0819.3,5.00,0.00,22.2,21.4,00.0,31.1,24.2,17.0,0000.0,0005.06,0002.41,0001.64
2022-12-06 10:09:00,,0819.3,5.00,0.00,22.2,21.3,00.0,31.1,24.1,17.0,0000.0,0004.83,0002.41,0001.64
2022-12-06 10:10:00,,0819.2,4.99,0.00,22.2,21.2,00.0,31.1,24.1,17.0,0000.0,0005.08,0002.48,0001.65
2022-12-06 10:11:00,,0819.2,5.00,0.00,22.2,21.1,00.0,31.1,24.1,17.0,0000.0,0005.55,0002.52,0001.68
2022-12-06 10:12:00,,0819.3,4.99,0.00,22.2,21.1,00.0,31.1,24.1,16.9,0000.0,0005.85,0002.54,0001.69
2022-12-06 10:13:00,,0819.3,4.99,0.00,22.2,21.0,00.0,31.1,24.1,16.9,0000.0,0005.95,0002.52,0001.69
2022-12-06 10:14:00,,0819.3,5.01,0.00,22.2,21.0,00.0,31.1,24.1,16.9,0000.0,0006.13,0002.53,0001.70
2022-12-06 10:15:00,,0819.3,5.01,0.00,22.2,21.0,00.0,31.1,24.1,17.0,0000.0,0006.13,0002.53,0001.71
2022-12-06 10:16:00,,0819.3,5.00,0.00,22.2,21.0,00.0,31.1,24.1,17.0,0000.0,0006.18,0002.50,0001.71
2022-12-06 10:17:00,,0819.2,4.99,0.00,22.2,21.0,00.0,31.1,24.1,17.0,0000.0,0006.29,0002.55,0001.71
2022-12-06 10:18:00,,0819.2,5.00,0.00,22.2,21.0,00.0,31.1,24.1,17.0,0000.0,0006.05,0002.50,0001.72
2022-12-06 10:19:00,,0819.2,5.01,0.00,22.2,21.0,00.0,31.1,24.0,17.0,0000.0,0005.75,0002.44,0001.72
2022-12-06 10:20:00,,0819.2,5.01,0.00,22.2,21.0,00.0,31.1,24.1,16.9,0000.0,0006.97,0002.49,0001.71
2022-12-06 10:21:00,,0819.2,5.00,0.00,22.2,21.0,00.0,31.1,24.1,16.9,0000.0,0007.01,0002.52,0001.71
2022-12-06 10:22:00,,0819.1,4.99,0.00,22.2,21.0,00.0,31.1,24.1,16.9,0000.0,0006.50,0002.48,0001.72
2022-12-06 10:23:00,,0819.1,4.99,0.00,22.2,21.0,00.0,31.1,24.1,16.9,0000.0,0006.02,0002.42,0001.71
2022-12-06 10:24:00,,0819.1,4.99,0.00,22.2,21.0,00.0,31.1,24.1,16.8,0000.0,0005.86,0002.41,0001.71
2022-12-06 10:25:00,,0819.1,5.00,0.00,22.2,21.0,00.0,31.1,24.1,16.9,0000.0,0005.94,0002.39,0001.72
2022-12-06 10:26:00,,0819.1,5.00,0.00,22.2,21.0,00.0,31.1,24.1,16.9,0000.0,0005.90,0002.39,0001.73
2022-12-06 10:27:00,,0819.1,5.00,0.00,22.2,20.9,00.0,31.1,24.1,16.9,0000.0,0005.81,0002.42,0001.73
2022-12-06 10:28:00,,0819.0,5.01,0.00,22.2,21.0,00.0,31.2,24.1,17.0,0000.0,0005.76,0002.39,0001.73
2022-12-06 10:29:00,,0819.0,5.00,0.00,22.2,21.0,00.0,31.1,24.1,17.0,0000.0,0005.77,0002.44,0001.73
2022-12-06 10:30:00,,0819.0,5.00,0.00,22.2,20.9,00.0,31.2,24.1,17.0,0000.0,0006.25,0002.45,0001.75
2022-12-06 10:31:00,,0819.0,5.00,0.00,22.2,20.9,00.0,31.2,24.1,17.0,0000.0,0005.54,0002.43,0001.77
2022-12-06 10:32:00,,0819.0,5.00,0.00,22.2,20.9,00.0,31.1,24.1,17.0,0000.0,0005.54,0002.43,0001.77
2022-12-06 10:33:00,,0819.1,5.00,0.00,22.2,20.9,00.0,31.1,24.1,17.0,0000.0,0005.75,0002.49,0001.77
2022-12-06 10:34:00,,0819.1,5.00,0.00,22.2,20.9,00.0,31.1,24.1,17.0,0000.0,0005.81,0002.53,0001.78
2022-12-06 10:35:00,,0819.1,5.00,0.00,22.2,20.9,00.0,31.2,24.0,17.0,0000.0,0005.82,0002.57,0001.80
2022-12-06 10:36:00,,0819.1,5.00,0.00,22.2,20.9,00.0,31.1,24.0,17.0,0000.0,0005.58,0002.59,0001.80
2022-12-06 10:37:00,,0819.1,5.00,0.00,22.2,20.9,00.0,31.1,24.0,17.0,0000.0,0005.69,0002.63,0001.80
2022-12-06 10:38:00,,0819.1,5.00,0.00,22.2,20.9,00.0,31.1,24.1,17.0,0000.0,0005.64,0002.62,0001.80
2022-12-06 10:39:00,,0819.3,5.00,0.00,22.2,20.9,00.0,31.1,24.1,16.9,0000.0,0005.66,0002.65,0001.83
2022-12-06 10:40:00,,0819.3,5.00,0.00,22.2,20.8,00.0,31.1,24.1,16.9,0000.0,0005.75,0002.67,0001.84
2022-12-06 10:41:00,,0819.3,5.00,0.00,22.2,20.8,00.0,31.1,24.1,16.9,0000.0,0005.42,0002.72,0001.84
2022-12-06 10:42:00,,0819.3,5.00,0.00,22.2,20.8,00.0,31.1,24.1,16.9,0000.0,0004.78,0002.71,0001.85
2022-12-06 10:43:00,,0819.3,5.00,0.00,22.2,20.7,00.0,31.1,24.0,16.9,0000.0,0004.75,0002.69,0001.86
2022-12-06 10:44:00,,0819.2,5.00,0.00,22.1,20.7,00.0,31.1,24.0,16.9,0000.0,0004.54,0002.62,0001.86
2022-12-06 10:45:00,,0819.2,5.00,0.00,22.1,20.7,00.0,31.1,24.0,16.9,0000.0,0004.54,0002.58,0001.85
2022-12-06 10:46:00,,0819.3,5.00,0.00,22.1,20.8,00.0,31.1,24.0,16.9,0000.0,0004.56,0002.57,0001.86
2022-12-06 10:47:00,,0819.2,5.00,0.00,22.1,20.8,00.0,31.1,23.9,16.9,0000.0,0004.84,0002.58,0001.86
2022-12-06 10:48:00,,0819.3,5.00,0.00,22.1,20.7,00.0,31.1,23.8,17.0,0000.0,0005.13,0002.53,0001.85
2022-12-06 10:49:00,,0819.3,5.00,0.00,22.1,20.7,00.0,31.1,23.9,17.1,0000.0,0005.34,0002.52,0001.85
2022-12-06 10:50:00,,0819.3,5.00,0.00,22.1,20.7,00.0,31.1,23.9,17.1,0000.0,0005.47,0002.52,0001.82
2022-12-06 10:51:00,,0819.3,5.00,0.00,22.1,20.7,00.0,31.1,23.8,17.1,0000.0,0005.53,0002.53,0001.81
2022-12-06 10:52:00,,0819.2,5.00,0.00,22.0,20.7,00.0,31.1,23.7,17.2,0000.0,0005.83,0002.53,0001.81
2022-12-06 10:53:00,,0819.2,5.01,0.00,22.0,20.7,00.0,31.0,23.7,17.2,0000.0,0006.54,0002.53,0001.80
2022-12-06 10:54:00,,0819.3,5.01,0.00,22.0,20.6,00.0,31.0,23.7,17.2,0000.0,0007.17,0002.53,0001.79
2022-12-06 10:55:00,,0819.3,5.01,0.00,22.0,20.6,00.0,31.0,23.7,17.2,0000.0,0007.25,0002.57,0001.79
2022-12-06 10:56:00,,0819.3,5.00,0.00,22.0,20.6,00.0,31.0,23.8,17.2,0000.0,0008.19,0002.59,0001.79
2022-12-06 10:57:00,,0819.3,5.00,0.00,22.0,20.6,00.0,31.0,23.7,17.2,0000.0,0008.16,0002.54,0001.77
2022-12-06 10:58:00,,0819.2,5.00,0.00,22.0,20.6,00.0,31.0,23.7,17.4,0000.0,0008.31,0002.51,0001.75
2022-12-06 10:59:00,,0819.2,4.99,0.00,22.0,20.6,00.0,31.0,23.6,17.7,0000.0,0008.27,0002.53,0001.73
